Location: Shandelee
(41.8790°N, 74.8713°W)
Time: 14:50:36
(UTC+00:00)

Daily predictions for brighter satellites

Satellite Brightness Start Highest point End
(mag) Time Altitude Azimuth Time Altitude Azimuth Time Altitude Azimuth
Cosmos 2058 4.4 22:22:20 10° NNE 22:24:50 16° ENE 22:27:20 10° ESE
BREEZE-M R/B 4.2 22:23:23 10° NW 22:26:33 31° N 22:32:05 10° ENE
Cosmos 1758 Rocket 4.1 22:22:29 10° NNW 22:26:49 66° W 22:31:07 10° S
Atlas Centaur 2 4.2 22:22:03 10° SW 22:29:01 33° SSE 22:36:24 10° ESE
NOAA 11 4.3 22:25:17 10° SSE 22:30:33 53° ENE 22:35:49 10° N
YAOGAN 6 3.3 22:27:37 10° S 22:31:13 60° W 22:34:54 10° NNW
Cosmos 1315 Rocket 4.3 22:29:03 10° SE 22:31:34 17° E 22:34:08 10° NE
Cosmos 1606 Rocket 3.9 22:31:32 10° SSW 22:35:52 70° W 22:40:17 10° N
Meteor 2-21 Rocket 4.5 22:29:50 10° N 22:36:01 84° E 22:42:08 10° S
Aureole 3 2.8 22:34:14 10° S 22:37:15 47° E 22:40:08 10° NNE
CORIOLIS 4.2 22:33:28 10° SSE 22:38:49 89° WSW 22:44:13 10° NNW
Cosmos 1980 Rocket 3.5 22:37:12 10° SE 22:40:55 18° E 22:44:37 10° ENE
Cosmos 1455 3.5 22:38:18 10° SE 22:41:03 20° E 22:43:50 10° NE
USA 305 3.9 22:39:41 10° NW 22:43:31 30° NNE 22:46:41 13° E
Cosmos 2297 Rocket 2.2 22:39:11 10° NNW 22:44:50 65° ENE 22:50:26 10° SE
CZ-2C R/B 4.1 22:40:57 10° ESE 22:45:43 28° ENE 22:50:23 10° N
In-Cosmos 22 Rocket 4.2 22:41:25 10° N 22:46:43 55° ENE 22:52:05 10° SSE
SKYMED 2 3.8 22:45:16 10° NNE 22:49:29 48° E 22:53:41 10° S
USA 306 3.8 22:46:12 10° NW 22:50:05 32° NNE 22:52:56 16° E
Okean-O 3.2 22:53:11 10° SE 22:57:12 35° ENE 23:01:13 10° N
Meteor 2-10 Rocket 3.8 22:52:33 10° SSE 22:57:36 46° E 23:02:29 10° NNE
SeaSat 1 4.2 23:00:02 13° NE 23:00:43 13° NE 23:03:02 10° NNE
SMAP 4.5 22:57:04 10° S 23:01:27 42° W 23:05:53 10° NNW
Cosmos 1553 Rocket 4.0 22:55:59 10° S 23:02:17 71° E 23:08:32 10° NNE
Cosmos 1689 Rocket 1.9 22:59:48 10° NNE 23:02:40 60° E 23:05:31 10° S
Cosmos 1408 3.2 22:59:33 10° N 23:02:56 34° ENE 23:06:18 10° SE
YAOGAN 3 4.5 22:59:04 10° SSE 23:03:25 79° ENE 23:07:47 10° N
Meteor 2-15 4.5 22:58:07 10° S 23:04:06 58° E 23:10:07 10° NNE
H-2A R/B 3.0 23:00:24 10° ESE 23:04:54 28° ENE 23:09:26 10° N
MOS 1 Rocket 4.2 23:04:01 10° NE 23:08:10 28° E 23:12:29 10° SSE
Cosmos 44 Rocket 3.5 23:08:40 10° S 23:13:10 46° ESE 23:16:15 20° NE
Cosmos 2058 Rocket 3.9 23:09:57 10° SSW 23:14:21 55° W 23:18:48 10° N
Cosmos 2278 4.2 23:09:25 10° S 23:14:35 37° ESE 23:18:42 15° NE
Lacrosse 5 3.9 23:12:43 10° NNW 23:15:37 15° N 23:17:47 12° NE
Cosmos 2219 3.7 23:13:02 10° NNW 23:18:45 65° WSW 23:24:25 10° S
Cosmos 1892 2.7 23:17:46 10° N 23:21:41 84° W 23:25:32 10° S
Cosmos 1939 Rocket 3.1 23:19:10 10° S 23:23:06 70° W 23:27:01 10° NNW
ARGOS 3.9 23:21:55 26° E 23:23:23 29° ENE 23:28:01 10° N
SL-08 R/B 4.5 23:18:13 10° N 23:24:23 83° W 23:30:28 10° S
Cosmos 1076 Rocket 3.6 23:20:42 10° N 23:24:51 50° E 23:28:59 10° SSE
Cosmos 968 Rocket 3.5 23:20:19 10° NNW 23:25:33 83° WSW 23:30:42 10° SSE
Cosmos 2082 3.7 23:20:11 10° NNW 23:25:54 63° ENE 23:31:34 10° SE
Cosmos 1656 4.5 23:20:53 10° SW 23:26:17 52° WNW 23:31:49 10° NNE
CZ-4B R/B 4.0 23:24:34 10° NNW 23:26:57 20° WNW 23:29:18 10° WSW
Cosmos 1745 Rocket 3.9 23:24:56 10° N 23:31:17 80° E 23:37:37 10° S
NOSS 3-3 (A) 3.9 23:26:41 10° SW 23:32:27 81° NW 23:38:34 12° NNE
NOSS 3-3 (C) 3.9 23:26:47 10° SW 23:32:33 82° NW 23:38:38 12° NE
USA 307 3.0 23:29:53 10° NW 23:34:07 57° NE 23:35:04 45° E
Cosmos 1825 2.1 23:32:53 10° N 23:36:38 58° E 23:37:07 53° ESE
COSMO-SKYMED 1 3.5 23:33:19 10° N 23:37:31 49° WNW 23:41:41 10° SSW
Cosmos 2369 3.7 23:33:18 10° SSW 23:39:01 89° WNW 23:44:46 10° NNE
USA 308 2.9 23:34:52 10° NW 23:39:07 62° NE 23:39:51 52° E
Cosmos 1386 Rocket 4.5 23:33:08 10° N 23:39:34 87° E 23:45:52 10° S
GPS 2-04 Rocket1 3.9 23:37:10 10° SW 23:40:44 30° S 23:41:13 29° SSE
Helios 1A Rocket 3.2 23:37:38 10° S 23:41:43 67° WSW 23:45:49 10° NNW
CSL-04 Rocket 3.7 23:39:32 10° SSE 23:44:58 60° ENE 23:50:23 10° N
OAO 2 Rocket 4.2 23:41:00 10° WSW 23:45:35 37° S 23:46:58 31° SSE
CZ-2D R/B 4.1 23:42:27 10° S 23:46:09 49° W 23:49:52 10° NNW
ATLAS 2AS CENTAUR R/B 3.4 23:40:22 10° NNW 23:47:11 35° NE 23:48:38 32° ENE
YAOGAN 1 2.5 23:43:24 10° SSE 23:47:44 86° W 23:52:04 10° NNW
Cosmos 2227 Rocket 3.2 23:43:54 10° NW 23:49:18 47° WSW 23:54:40 10° S
Cosmos 2263 Rocket 3.2 23:46:10 10° N 23:50:16 29° NE 23:50:16 29° NE
CZ-4 R/B 1.7 23:47:59 10° S 23:51:49 60° W 23:55:39 10° NNW
Cosmos 1812 Rocket 3.7 23:50:11 10° SSW 23:54:34 73° W 23:58:57 10° N
